Lafayette, LA

2:32 AM CDT on March 26, 2017 (GMT -0500)
Lafayette Regional

Weather History for KLFT - July, 2013

Change the Weather History Date:

Wednesday, July 17, 2013

  Actual Average Record
Temperature  
Mean Temperature 83 °F 84 °F  
Max Temperature 90 °F 92 °F 100 °F (1932)
Min Temperature 75 °F 75 °F 65 °F (1967)
Cooling Degree Days 18 19  
Month to date cooling degree days 279 307  
Year to date cooling degree days 1284 1419  
Since 1 June cooling degree days 820 805  
Growing Degree Days 32 (Base 50)    
Moisture  
Dew Point 73 °F    
Average Humidity 80    
Maximum Humidity 100    
Minimum Humidity 59    
Precipitation  
Precipitation 0.15 in 0.20 in 1.80 in (1920)
Month to date precipitation 2.57 3.81  
Year to date precipitation 37.85 33.51  
Sea Level Pressure  
Sea Level Pressure 30.17 in    
Wind  
Wind Speed 4 mph (ENE)    
Max Wind Speed 14 mph    
Max Gust Speed 20 mph    
Visibility 8 miles    
Events Rain , Thunderstorm    
T = Trace of Precipitation, MM = Missing Value Source: NWS Daily Summary

Daily Weather History Graph

Daily Weather History Graph

Search for Another Location

Airport or City:

Trip Planner

Search our weather history database for the weather conditions in past years. The results will help you decide how hot, cold, wet, or windy it might be!

Date:

Astronomy

Jul. 17, 2013 Rise Set
Actual Time 6:17 AM CDT 8:10 PM CDT
Civil Twilight 5:51 AM CDT 8:36 PM CDT
Nautical Twilight 5:18 AM CDT 9:09 PM CDT
Astronomical Twilight 4:44 AM CDT 9:43 PM CDT
Moon 3:04 PM CDT (7/17) 1:17 AM CDT (7/17)
Length of Visible Light 14h 45m
Length of Day
13h 52m
Waxing Gibbous, 67% of the Moon is Illuminated
Jul 17
Waxing Gibbous
Jul 22
Full
Jul 29
Last Quarter
Aug 6
New
Aug 14
First Quarter

Hourly Weather History & Observations

Time (CDT) Temp. Heat Index Dew Point Humidity Pressure Visibility Wind Dir Wind Speed Gust Speed Precip Events Conditions
12:53 AM 75.9 °F - 73.9 °F 94% 30.16 in 10.0 mi Calm Calm - N/A   Clear
1:53 AM 75.0 °F - 73.0 °F 94% 30.15 in 9.0 mi Calm Calm - N/A   Clear
2:53 AM 75.0 °F - 73.9 °F 96% 30.14 in 9.0 mi East 4.6 mph - N/A   Clear
3:33 AM 75.2 °F - 73.4 °F 94% 30.14 in 8.0 mi ENE 3.5 mph - N/A   Scattered Clouds
3:53 AM 75.0 °F - 73.9 °F 96% 30.14 in 8.0 mi Calm Calm - N/A   Scattered Clouds
4:53 AM 75.0 °F - 73.9 °F 96% 30.14 in 8.0 mi ENE 3.5 mph - N/A   Clear
5:05 AM 75.2 °F - 73.4 °F 94% 30.14 in 9.0 mi ENE 3.5 mph - N/A   Scattered Clouds
5:15 AM 75.2 °F - 73.4 °F 94% 30.15 in 8.0 mi ENE 3.5 mph - N/A   Mostly Cloudy
5:26 AM 75.2 °F - 73.4 °F 94% 30.15 in 8.0 mi ENE 4.6 mph - N/A   Overcast
5:53 AM 75.9 °F - 73.9 °F 94% 30.15 in 6.0 mi ENE 3.5 mph - N/A   Overcast
6:20 AM 75.2 °F - 73.4 °F 94% 30.15 in 4.0 mi ENE 4.6 mph - N/A   Overcast
6:27 AM 75.2 °F - 73.4 °F 94% 30.15 in 4.0 mi ENE 5.8 mph - N/A   Overcast
6:53 AM 75.9 °F - 75.0 °F 97% 30.16 in 5.0 mi ENE 4.6 mph - N/A   Overcast
7:53 AM 78.1 °F - 75.0 °F 90% 30.18 in 7.0 mi Variable 4.6 mph - N/A   Overcast
8:00 AM 78.8 °F - 75.2 °F 89% 30.19 in 8.0 mi ENE 5.8 mph - N/A   Overcast
8:50 AM 78.8 °F - 75.2 °F 89% 30.19 in 9.0 mi East 5.8 mph - N/A   Mostly Cloudy
8:53 AM 80.1 °F 85.1 °F 75.0 °F 85% 30.19 in 10.0 mi ENE 5.8 mph - N/A   Mostly Cloudy
9:03 AM 80.6 °F 86.2 °F 75.2 °F 84% 30.20 in 10.0 mi ENE 8.1 mph - 0.01 in   Mostly Cloudy
9:41 AM 80.6 °F 85.4 °F 73.4 °F 79% 30.20 in 10.0 mi East 6.9 mph - 0.01 in   Scattered Clouds
9:53 AM 82.0 °F 88.6 °F 75.0 °F 79% 30.21 in 10.0 mi Variable 4.6 mph - 0.01 in   Mostly Cloudy
10:09 AM 82.4 °F 88.2 °F 73.4 °F 74% 30.21 in 10.0 mi Variable 5.8 mph - N/A   Scattered Clouds
10:53 AM 84.0 °F 90.2 °F 73.0 °F 69% 30.22 in 10.0 mi East 8.1 mph - N/A   Scattered Clouds
11:01 AM 84.2 °F 90.9 °F 73.4 °F 70% 30.22 in 10.0 mi Variable 6.9 mph - N/A   Mostly Cloudy
11:53 AM 86.0 °F 93.0 °F 73.0 °F 65% 30.21 in 10.0 mi ESE 6.9 mph - N/A   Partly Cloudy
12:53 PM 88.0 °F 96.5 °F 73.9 °F 63% 30.20 in 10.0 mi ENE 5.8 mph - N/A   Mostly Cloudy
1:53 PM 88.0 °F 94.7 °F 72.0 °F 59% 30.18 in 10.0 mi ENE 4.6 mph - N/A   Scattered Clouds
2:39 PM 78.8 °F - 69.8 °F 74% 30.21 in 3.0 mi Variable 6.9 mph 19.6 mph 0.07 in Rain , Thunderstorm Thunderstorms and Rain
2:41 PM 77.0 °F - 69.8 °F 78% 30.20 in 1.5 mi North 5.8 mph 19.6 mph 0.13 in Rain , Thunderstorm Thunderstorms and Rain
2:49 PM 77.0 °F - 69.8 °F 78% 30.18 in 2.0 mi Variable 5.8 mph - 0.14 in Rain Light Rain
2:53 PM 77.0 °F - 71.1 °F 82% 30.18 in 6.0 mi West 8.1 mph - 0.14 in   Haze
3:53 PM 80.1 °F 83.8 °F 72.0 °F 76% 30.15 in 10.0 mi SW 10.4 mph - N/A   Clear
4:53 PM 82.0 °F 86.3 °F 71.1 °F 69% 30.14 in 10.0 mi SSE 3.5 mph - N/A   Clear
5:53 PM 84.9 °F 90.7 °F 72.0 °F 65% 30.13 in 10.0 mi Calm Calm - N/A   Clear
6:53 PM 84.9 °F 91.4 °F 73.0 °F 67% 30.12 in 10.0 mi Calm Calm - N/A   Clear
7:53 PM 82.9 °F 88.8 °F 73.0 °F 72% 30.12 in 10.0 mi Calm Calm - N/A   Clear
8:53 PM 82.0 °F 87.4 °F 73.0 °F 74% 30.12 in 10.0 mi Calm Calm - N/A   Clear
9:53 PM 80.1 °F 84.5 °F 73.9 °F 81% 30.15 in 10.0 mi NNE 8.1 mph - N/A   Clear
10:53 PM 79.0 °F - 73.9 °F 84% 30.16 in 10.0 mi Calm Calm - N/A   Clear
11:53 PM 77.0 °F - 73.9 °F 90% 30.16 in 10.0 mi North 3.5 mph - N/A   Partly Cloudy